Year,Month,Day,Hour,Minute,Value (Times are PST for windspeed in km/hr)
2019,01,19,00,00,35.50
2019,01,19,00,01,31.80
2019,01,19,00,02,38.40
2019,01,19,00,03,28.40
2019,01,19,00,04,22.20
2019,01,19,00,05,30.00
2019,01,19,00,06,32.80
2019,01,19,00,07,25.80
2019,01,19,00,08,29.40
2019,01,19,00,09,30.60
2019,01,19,00,10,24.00
2019,01,19,00,11,23.80
2019,01,19,00,12,22.20
2019,01,19,00,13,26.20
2019,01,19,00,14,43.00
2019,01,19,00,15,32.70
2019,01,19,00,16,37.00
2019,01,19,00,17,33.70
2019,01,19,00,18,31.90
2019,01,19,00,19,32.20
2019,01,19,00,20,29.70
2019,01,19,00,21,40.10
2019,01,19,00,22,39.70
2019,01,19,00,23,51.30
2019,01,19,00,24,46.20
2019,01,19,00,25,32.40
2019,01,19,00,26,38.70
2019,01,19,00,27,44.80
2019,01,19,00,28,46.70
2019,01,19,00,29,42.70
2019,01,19,00,30,39.00
2019,01,19,00,31,55.60
2019,01,19,00,32,37.40
2019,01,19,00,33,39.50
2019,01,19,00,34,32.10
2019,01,19,00,35,38.90
2019,01,19,00,36,42.00
2019,01,19,00,37,34.30
2019,01,19,00,38,32.40
2019,01,19,00,39,34.40
2019,01,19,00,40,27.00
2019,01,19,00,41,27.60
2019,01,19,00,42,32.80
2019,01,19,00,43,21.10
2019,01,19,00,44,21.60
2019,01,19,00,45,26.00
2019,01,19,00,46,29.70
2019,01,19,00,47,36.20
2019,01,19,00,48,27.10
2019,01,19,00,49,32.80
2019,01,19,00,50,35.60
2019,01,19,00,51,22.00
2019,01,19,00,52,18.40
2019,01,19,00,53,19.30
2019,01,19,00,54,23.20
2019,01,19,00,55,23.40
2019,01,19,00,56,32.50
2019,01,19,00,57,29.40
2019,01,19,00,58,22.00
2019,01,19,00,59,23.50
2019,01,19,01,00,21.30
2019,01,19,01,01,17.80
2019,01,19,01,02,22.40
2019,01,19,01,03,23.00
2019,01,19,01,04,17.90
2019,01,19,01,05,26.00
2019,01,19,01,06,20.10
2019,01,19,01,07,19.50
2019,01,19,01,08,28.10
2019,01,19,01,09,24.80
2019,01,19,01,10,20.80
2019,01,19,01,11,22.90
2019,01,19,01,12,31.30
2019,01,19,01,13,21.20
2019,01,19,01,14,22.00
2019,01,19,01,15,18.60
2019,01,19,01,16,19.40
2019,01,19,01,17,27.40
2019,01,19,01,18,20.60
2019,01,19,01,19,28.40
2019,01,19,01,20,28.80
2019,01,19,01,21,23.80
2019,01,19,01,22,30.60
2019,01,19,01,23,31.00
2019,01,19,01,24,25.90
2019,01,19,01,25,16.70
2019,01,19,01,26,14.60
2019,01,19,01,27,24.20
2019,01,19,01,28,12.00
2019,01,19,01,29,10.90
2019,01,19,01,30,19.30
2019,01,19,01,31,25.00
2019,01,19,01,32,18.40
2019,01,19,01,33,14.10
2019,01,19,01,34,23.80
2019,01,19,01,35,17.80
2019,01,19,01,36,24.30
2019,01,19,01,37,15.70
2019,01,19,01,38,21.60
2019,01,19,01,39,17.00
2019,01,19,01,40,13.90
2019,01,19,01,41,18.50
2019,01,19,01,42,13.80
2019,01,19,01,43,17.90
2019,01,19,01,44,16.80
2019,01,19,01,45,15.00
2019,01,19,01,46,15.40
2019,01,19,01,47,15.00
2019,01,19,01,48,14.70
2019,01,19,01,49,11.40
2019,01,19,01,50,12.00
2019,01,19,01,51,10.60
2019,01,19,01,52,12.50
2019,01,19,01,53,8.70
2019,01,19,01,54,12.50
2019,01,19,01,55,14.40
2019,01,19,01,56,12.30
2019,01,19,01,57,13.60
2019,01,19,01,58,16.80
2019,01,19,01,59,16.70
2019,01,19,02,00,13.70
2019,01,19,02,01,13.30
2019,01,19,02,02,9.30
2019,01,19,02,03,15.50
2019,01,19,02,04,14.50
2019,01,19,02,05,10.10
2019,01,19,02,06,12.00
2019,01,19,02,07,15.80
2019,01,19,02,08,14.10
2019,01,19,02,09,12.90
2019,01,19,02,10,13.30
2019,01,19,02,11,8.90
2019,01,19,02,12,12.60
2019,01,19,02,13,14.40
2019,01,19,02,14,11.30
2019,01,19,02,15,13.20
2019,01,19,02,16,9.40
2019,01,19,02,17,7.70
2019,01,19,02,18,7.40
2019,01,19,02,19,6.10
2019,01,19,02,20,8.70
2019,01,19,02,21,12.30
2019,01,19,02,22,11.40
2019,01,19,02,23,10.90
2019,01,19,02,24,16.20
2019,01,19,02,25,16.20
2019,01,19,02,26,12.40
2019,01,19,02,27,9.70
2019,01,19,02,28,14.90
2019,01,19,02,29,13.60
2019,01,19,02,30,14.30
2019,01,19,02,31,13.20
2019,01,19,02,32,12.90
2019,01,19,02,33,15.00
2019,01,19,02,34,12.80
2019,01,19,02,35,12.50
2019,01,19,02,36,13.30
2019,01,19,02,37,8.30
2019,01,19,02,38,14.20
2019,01,19,02,39,7.70
2019,01,19,02,40,10.00
2019,01,19,02,41,15.00
2019,01,19,02,42,13.10
2019,01,19,02,43,7.50
2019,01,19,02,44,7.60
2019,01,19,02,45,6.10
2019,01,19,02,46,7.80
2019,01,19,02,47,12.20
2019,01,19,02,48,15.60
2019,01,19,02,49,17.90
2019,01,19,02,50,11.30
2019,01,19,02,51,7.80
2019,01,19,02,52,8.30
2019,01,19,02,53,6.60
2019,01,19,02,54,8.00
2019,01,19,02,55,7.00
2019,01,19,02,56,6.40
2019,01,19,02,57,6.70
2019,01,19,02,58,10.40
2019,01,19,02,59,8.30
2019,01,19,03,00,7.00
2019,01,19,03,01,6.10
2019,01,19,03,02,6.90
2019,01,19,03,03,3.50
2019,01,19,03,04,4.60
2019,01,19,03,05,3.50
2019,01,19,03,06,6.40
2019,01,19,03,07,6.10
2019,01,19,03,08,6.10
2019,01,19,03,09,6.70
2019,01,19,03,10,10.60
2019,01,19,03,11,11.50
2019,01,19,03,12,11.00
2019,01,19,03,13,12.20
2019,01,19,03,14,11.80
2019,01,19,03,15,14.60
2019,01,19,03,16,13.40
2019,01,19,03,17,13.90
2019,01,19,03,18,11.60
2019,01,19,03,19,13.90
2019,01,19,03,20,12.00
2019,01,19,03,21,8.80
2019,01,19,03,22,8.90
2019,01,19,03,23,10.10
2019,01,19,03,24,6.40
2019,01,19,03,25,6.10
2019,01,19,03,26,5.70
2019,01,19,03,27,4.00
2019,01,19,03,28,3.50
2019,01,19,03,29,10.60
2019,01,19,03,30,5.00
2019,01,19,03,31,3.10
2019,01,19,03,32,10.30
2019,01,19,03,33,7.10
2019,01,19,03,34,7.60
2019,01,19,03,35,6.10
2019,01,19,03,36,13.00
2019,01,19,03,37,7.70
2019,01,19,03,38,2.60
2019,01,19,03,39,3.90
2019,01,19,03,40,6.70
2019,01,19,03,41,6.40
2019,01,19,03,42,3.90
2019,01,19,03,43,5.80
2019,01,19,03,44,5.30
2019,01,19,03,45,2.90
2019,01,19,03,46,3.80
2019,01,19,03,47,8.90
2019,01,19,03,48,6.90
2019,01,19,03,49,7.20
2019,01,19,03,50,5.40
2019,01,19,03,51,4.00
2019,01,19,03,52,1.60
2019,01,19,03,53,0.20
2019,01,19,03,54,0.00
2019,01,19,03,55,2.00
2019,01,19,03,56,3.50
2019,01,19,03,57,3.70
2019,01,19,03,58,16.10
2019,01,19,03,59,15.10
2019,01,19,04,00,15.60
2019,01,19,04,01,10.70
2019,01,19,04,02,9.90
2019,01,19,04,03,11.30
2019,01,19,04,04,11.40
2019,01,19,04,05,11.10
2019,01,19,04,06,10.60
2019,01,19,04,07,12.80
2019,01,19,04,08,17.00
2019,01,19,04,09,9.40
2019,01,19,04,10,12.70
2019,01,19,04,11,12.50
2019,01,19,04,12,10.50
2019,01,19,04,13,9.70
2019,01,19,04,14,14.60
2019,01,19,04,15,17.90
2019,01,19,04,16,19.00
2019,01,19,04,17,16.50
2019,01,19,04,18,16.00
2019,01,19,04,19,10.80
2019,01,19,04,20,8.20
2019,01,19,04,21,12.90
2019,01,19,04,22,12.30
2019,01,19,04,23,9.10
2019,01,19,04,24,14.40
2019,01,19,04,25,12.60
2019,01,19,04,26,16.20
2019,01,19,04,27,14.40
2019,01,19,04,28,19.30
2019,01,19,04,29,16.50
2019,01,19,04,30,12.20
2019,01,19,04,31,7.30
2019,01,19,04,32,13.50
2019,01,19,04,33,9.60
2019,01,19,04,34,4.50
2019,01,19,04,35,5.60
2019,01,19,04,36,9.80
2019,01,19,04,37,11.90
2019,01,19,04,38,7.50
2019,01,19,04,39,9.50
2019,01,19,04,40,5.80
2019,01,19,04,41,15.90
2019,01,19,04,42,13.60
2019,01,19,04,43,10.30
2019,01,19,04,44,11.40
2019,01,19,04,45,9.10
2019,01,19,04,46,7.10
2019,01,19,04,47,14.80
2019,01,19,04,48,12.90
2019,01,19,04,49,16.70
2019,01,19,04,50,15.30
2019,01,19,04,51,16.40
2019,01,19,04,52,13.20
2019,01,19,04,53,12.30
2019,01,19,04,54,13.10
2019,01,19,04,55,13.20
2019,01,19,04,56,12.40
2019,01,19,04,57,16.10
2019,01,19,04,58,18.80
2019,01,19,04,59,16.10
2019,01,19,05,00,16.30
2019,01,19,05,01,13.40
2019,01,19,05,02,14.20
2019,01,19,05,03,12.90
2019,01,19,05,04,8.30
2019,01,19,05,05,9.50
2019,01,19,05,06,10.80
2019,01,19,05,07,14.40
2019,01,19,05,08,14.10
2019,01,19,05,09,16.20
2019,01,19,05,10,16.00
2019,01,19,05,11,19.70
2019,01,19,05,12,16.70
2019,01,19,05,13,11.40
2019,01,19,05,14,14.00
2019,01,19,05,15,12.50
2019,01,19,05,16,12.90
2019,01,19,05,17,12.30
2019,01,19,05,18,9.70
2019,01,19,05,19,9.90
2019,01,19,05,20,12.90
2019,01,19,05,21,8.50
2019,01,19,05,22,14.20
2019,01,19,05,23,18.70
2019,01,19,05,24,18.00
2019,01,19,05,25,15.50
2019,01,19,05,26,14.80
2019,01,19,05,27,14.70
2019,01,19,05,28,15.50
2019,01,19,05,29,16.30
2019,01,19,05,30,16.60
2019,01,19,05,31,20.20
2019,01,19,05,32,16.70
2019,01,19,05,33,15.40
2019,01,19,05,34,13.80
2019,01,19,05,35,12.70
2019,01,19,05,36,13.50
2019,01,19,05,37,15.50
2019,01,19,05,38,11.10
2019,01,19,05,39,12.40
2019,01,19,05,40,8.10
2019,01,19,05,41,11.10
2019,01,19,05,42,9.50
2019,01,19,05,43,10.70
2019,01,19,05,44,16.20
2019,01,19,05,45,9.80
2019,01,19,05,46,15.00
2019,01,19,05,47,14.80
2019,01,19,05,48,22.30
2019,01,19,05,49,18.50
2019,01,19,05,50,23.20
2019,01,19,05,51,16.90
2019,01,19,05,52,16.00
2019,01,19,05,53,12.20
2019,01,19,05,54,15.00
2019,01,19,05,55,15.30
2019,01,19,05,56,10.50
2019,01,19,05,57,9.80
2019,01,19,05,58,10.60
2019,01,19,05,59,16.50
2019,01,19,06,00,14.00
2019,01,19,06,01,15.30
2019,01,19,06,02,10.80
2019,01,19,06,03,15.70
2019,01,19,06,04,22.80
2019,01,19,06,05,18.30
2019,01,19,06,06,20.20
2019,01,19,06,07,13.40
2019,01,19,06,08,11.50
2019,01,19,06,09,14.60
2019,01,19,06,10,11.70
2019,01,19,06,11,13.60
2019,01,19,06,12,12.50
2019,01,19,06,13,11.80
2019,01,19,06,14,15.40
2019,01,19,06,15,15.00
2019,01,19,06,16,18.90
2019,01,19,06,17,18.30
2019,01,19,06,18,11.70
2019,01,19,06,19,6.00
2019,01,19,06,20,9.20
2019,01,19,06,21,7.70
2019,01,19,06,22,4.30
2019,01,19,06,23,6.90
2019,01,19,06,24,15.20
2019,01,19,06,25,8.70
2019,01,19,06,26,3.70
2019,01,19,06,27,3.80
2019,01,19,06,28,6.90
2019,01,19,06,29,6.70
2019,01,19,06,30,2.30
2019,01,19,06,31,8.20
2019,01,19,06,32,7.30
2019,01,19,06,33,10.00
2019,01,19,06,34,8.60
2019,01,19,06,35,7.80
2019,01,19,06,36,11.10
2019,01,19,06,37,13.80
2019,01,19,06,38,12.60
2019,01,19,06,39,15.40
2019,01,19,06,40,15.40
2019,01,19,06,41,12.70
2019,01,19,06,42,13.50
2019,01,19,06,43,14.80
2019,01,19,06,44,11.40
2019,01,19,06,45,10.50
2019,01,19,06,46,11.70
2019,01,19,06,47,10.50
2019,01,19,06,48,11.70
2019,01,19,06,49,10.10
2019,01,19,06,50,8.60
2019,01,19,06,51,11.80
2019,01,19,06,52,10.10
2019,01,19,06,53,5.90
2019,01,19,06,54,8.20
2019,01,19,06,55,10.60
2019,01,19,06,56,5.50
2019,01,19,06,57,4.80
2019,01,19,06,58,8.50
2019,01,19,06,59,5.00
2019,01,19,07,00,1.40
2019,01,19,07,01,5.70
2019,01,19,07,02,2.90
2019,01,19,07,03,0.20
2019,01,19,07,04,4.00
2019,01,19,07,05,1.90
2019,01,19,07,06,1.80
2019,01,19,07,07,2.10
2019,01,19,07,08,1.80
2019,01,19,07,09,3.00
2019,01,19,07,10,1.80
2019,01,19,07,11,4.40
2019,01,19,07,12,5.10
2019,01,19,07,13,3.10
2019,01,19,07,14,4.10
2019,01,19,07,15,4.00
2019,01,19,07,16,4.20
2019,01,19,07,17,7.90
2019,01,19,07,18,9.00
2019,01,19,07,19,13.80
2019,01,19,07,20,8.40
2019,01,19,07,21,6.00
2019,01,19,07,22,7.50
2019,01,19,07,23,9.50
2019,01,19,07,24,7.40
2019,01,19,07,25,8.70
2019,01,19,07,26,13.10
2019,01,19,07,27,12.60
2019,01,19,07,28,6.70
2019,01,19,07,29,7.70
2019,01,19,07,30,13.50
2019,01,19,07,31,11.10
2019,01,19,07,32,5.80
2019,01,19,07,33,3.90
2019,01,19,07,34,2.10
2019,01,19,07,35,0.20
2019,01,19,07,36,0.00
2019,01,19,07,37,0.00
2019,01,19,07,38,0.00
2019,01,19,07,39,0.00
2019,01,19,07,40,0.00
2019,01,19,07,41,0.00
2019,01,19,07,42,0.00
2019,01,19,07,43,0.00
2019,01,19,07,44,1.40
2019,01,19,07,45,5.90
2019,01,19,07,46,8.30
2019,01,19,07,47,9.50
2019,01,19,07,48,11.40
2019,01,19,07,49,5.80
2019,01,19,07,50,4.30
2019,01,19,07,51,6.30
2019,01,19,07,52,3.80
2019,01,19,07,53,2.40
2019,01,19,07,54,6.50
2019,01,19,07,55,5.10
2019,01,19,07,56,5.70
2019,01,19,07,57,4.30
2019,01,19,07,58,3.20
2019,01,19,07,59,5.30
2019,01,19,08,00,8.40
2019,01,19,08,01,4.60
2019,01,19,08,02,2.00
2019,01,19,08,03,8.40
2019,01,19,08,04,7.60
2019,01,19,08,05,8.20
2019,01,19,08,06,11.70
2019,01,19,08,07,9.10
2019,01,19,08,08,6.80
2019,01,19,08,09,7.40
2019,01,19,08,10,4.90
2019,01,19,08,11,4.50
2019,01,19,08,12,6.60
2019,01,19,08,13,6.60
2019,01,19,08,14,7.90
2019,01,19,08,15,5.80
2019,01,19,08,16,5.40
2019,01,19,08,17,9.40
2019,01,19,08,18,9.40
2019,01,19,08,19,4.40
2019,01,19,08,20,1.50
2019,01,19,08,21,5.20
2019,01,19,08,22,2.20
2019,01,19,08,23,6.40
2019,01,19,08,24,6.10
2019,01,19,08,25,3.20
2019,01,19,08,26,7.30
2019,01,19,08,27,6.10
2019,01,19,08,28,6.00
2019,01,19,08,29,3.60
2019,01,19,08,30,3.70
2019,01,19,08,31,3.60
2019,01,19,08,32,5.20
2019,01,19,08,33,6.00
2019,01,19,08,34,6.10
2019,01,19,08,35,3.90
2019,01,19,08,36,5.70
2019,01,19,08,37,6.80
2019,01,19,08,38,11.10
2019,01,19,08,39,8.50
2019,01,19,08,40,6.30
2019,01,19,08,41,4.20
2019,01,19,08,42,4.60
2019,01,19,08,43,5.90
2019,01,19,08,44,7.60
2019,01,19,08,45,5.80
2019,01,19,08,46,3.40
2019,01,19,08,47,3.20
2019,01,19,08,48,3.50
2019,01,19,08,49,11.10
2019,01,19,08,50,7.80
2019,01,19,08,51,6.00
2019,01,19,08,52,7.60
2019,01,19,08,53,9.90
2019,01,19,08,54,5.30
2019,01,19,08,55,6.90
2019,01,19,08,56,6.90
2019,01,19,08,57,6.10
2019,01,19,08,58,5.00
2019,01,19,08,59,6.30
2019,01,19,09,00,5.70
2019,01,19,09,01,3.80
2019,01,19,09,02,2.80
2019,01,19,09,03,3.50
2019,01,19,09,04,4.20
2019,01,19,09,05,4.60
2019,01,19,09,06,7.20
2019,01,19,09,07,7.20
2019,01,19,09,08,7.80
2019,01,19,09,09,5.80
2019,01,19,09,10,7.90
2019,01,19,09,11,6.10
2019,01,19,09,12,4.50
2019,01,19,09,13,3.60
2019,01,19,09,14,3.30
2019,01,19,09,15,3.10
2019,01,19,09,16,2.10
2019,01,19,09,17,2.30
2019,01,19,09,18,1.20
2019,01,19,09,19,2.60
2019,01,19,09,20,3.40
2019,01,19,09,21,0.70
2019,01,19,09,22,4.50
2019,01,19,09,23,4.40
2019,01,19,09,24,1.60
2019,01,19,09,25,1.60
2019,01,19,09,26,2.90
2019,01,19,09,27,3.70
2019,01,19,09,28,3.60
2019,01,19,09,29,3.00
2019,01,19,09,30,2.60
2019,01,19,09,31,3.80
2019,01,19,09,32,2.70
2019,01,19,09,33,5.50
2019,01,19,09,34,6.90
2019,01,19,09,35,7.60
2019,01,19,09,36,4.60
2019,01,19,09,37,5.10
2019,01,19,09,38,4.60
2019,01,19,09,39,6.00
2019,01,19,09,40,3.10
2019,01,19,09,41,4.40
2019,01,19,09,42,5.50
2019,01,19,09,43,4.90
2019,01,19,09,44,5.40
2019,01,19,09,45,5.50
2019,01,19,09,46,7.60
2019,01,19,09,47,5.80
2019,01,19,09,48,3.60
2019,01,19,09,49,2.90
2019,01,19,09,50,6.30
2019,01,19,09,51,4.20
2019,01,19,09,52,4.10
2019,01,19,09,53,5.00
2019,01,19,09,54,6.30
2019,01,19,09,55,3.30
2019,01,19,09,56,2.10
2019,01,19,09,57,3.30
2019,01,19,09,58,1.80
2019,01,19,09,59,2.70
2019,01,19,10,00,5.30
2019,01,19,10,01,4.80
2019,01,19,10,02,5.40
2019,01,19,10,03,4.40
2019,01,19,10,04,3.10
2019,01,19,10,05,2.60
2019,01,19,10,06,3.50
2019,01,19,10,07,2.60
2019,01,19,10,08,2.40
2019,01,19,10,09,2.30
2019,01,19,10,10,2.40
2019,01,19,10,11,0.00
2019,01,19,10,12,0.00
2019,01,19,10,13,0.10
2019,01,19,10,14,0.00
2019,01,19,10,15,0.00
2019,01,19,10,16,0.00
2019,01,19,10,17,0.00
2019,01,19,10,18,1.30
2019,01,19,10,19,7.20
2019,01,19,10,20,5.70
2019,01,19,10,21,4.60
2019,01,19,10,22,6.60
2019,01,19,10,23,9.10
2019,01,19,10,24,5.20
2019,01,19,10,25,7.80
2019,01,19,10,26,7.60
2019,01,19,10,27,6.10
2019,01,19,10,28,5.10
2019,01,19,10,29,2.20
2019,01,19,10,30,2.30
2019,01,19,10,31,3.00
2019,01,19,10,32,3.10
2019,01,19,10,33,2.30
2019,01,19,10,34,2.00
2019,01,19,10,35,2.30
2019,01,19,10,36,6.40
2019,01,19,10,37,5.00
2019,01,19,10,38,5.20
2019,01,19,10,39,4.70
2019,01,19,10,40,4.50
2019,01,19,10,41,5.20
2019,01,19,10,42,4.90
2019,01,19,10,43,4.30
2019,01,19,10,44,3.70
2019,01,19,10,45,3.30
2019,01,19,10,46,3.60
2019,01,19,10,47,2.00
2019,01,19,10,48,0.00
2019,01,19,10,49,0.00
2019,01,19,10,50,0.00
2019,01,19,10,51,0.00
2019,01,19,10,52,7.70
2019,01,19,10,53,4.50
2019,01,19,10,54,5.40
2019,01,19,10,55,5.60
2019,01,19,10,56,3.70
2019,01,19,10,57,4.80
2019,01,19,10,58,1.00
2019,01,19,10,59,0.00
2019,01,19,11,00,0.60
2019,01,19,11,01,4.10
2019,01,19,11,02,3.40
2019,01,19,11,03,3.00
2019,01,19,11,04,3.70
2019,01,19,11,05,2.60
2019,01,19,11,06,6.00
2019,01,19,11,07,6.00
2019,01,19,11,08,7.10
2019,01,19,11,09,6.00
2019,01,19,11,10,8.60
2019,01,19,11,11,9.20
2019,01,19,11,12,6.40
2019,01,19,11,13,5.70
2019,01,19,11,14,4.70
2019,01,19,11,15,4.60
2019,01,19,11,16,6.70
2019,01,19,11,17,7.50
2019,01,19,11,18,8.00
2019,01,19,11,19,7.20
2019,01,19,11,20,8.00
2019,01,19,11,21,9.40
2019,01,19,11,22,11.60
2019,01,19,11,23,10.90
2019,01,19,11,24,10.30
2019,01,19,11,25,9.20
2019,01,19,11,26,8.40
2019,01,19,11,27,7.10
2019,01,19,11,28,9.40
2019,01,19,11,29,9.90
2019,01,19,11,30,7.50
2019,01,19,11,31,8.30
2019,01,19,11,32,11.60
2019,01,19,11,33,9.00
2019,01,19,11,34,11.40
2019,01,19,11,35,13.40
2019,01,19,11,36,10.50
2019,01,19,11,37,7.60
2019,01,19,11,38,4.90
2019,01,19,11,39,8.40
2019,01,19,11,40,6.60
2019,01,19,11,41,6.40
2019,01,19,11,42,4.40
2019,01,19,11,43,3.50
2019,01,19,11,44,3.60
2019,01,19,11,45,3.60
2019,01,19,11,46,4.70
2019,01,19,11,47,1.50
2019,01,19,11,48,0.00
2019,01,19,11,49,0.00
2019,01,19,11,50,0.00
2019,01,19,11,51,0.00
2019,01,19,11,52,0.00
2019,01,19,11,53,0.00
2019,01,19,11,54,0.00
2019,01,19,11,55,0.00
2019,01,19,11,56,0.40
2019,01,19,11,57,5.50
2019,01,19,11,58,4.80
2019,01,19,11,59,6.70
2019,01,19,12,00,6.60
2019,01,19,12,01,4.70
2019,01,19,12,02,3.70
2019,01,19,12,03,3.60
2019,01,19,12,04,2.60
2019,01,19,12,05,2.80
2019,01,19,12,06,3.00
2019,01,19,12,07,0.40
2019,01,19,12,08,0.00
2019,01,19,12,09,0.00
2019,01,19,12,10,0.00
2019,01,19,12,11,0.00
2019,01,19,12,12,0.00
2019,01,19,12,13,0.00
2019,01,19,12,14,7.60
2019,01,19,12,15,10.60
2019,01,19,12,16,10.30
2019,01,19,12,17,8.20
2019,01,19,12,18,7.50
2019,01,19,12,19,8.80
2019,01,19,12,20,7.80
2019,01,19,12,21,7.70
2019,01,19,12,22,6.40
2019,01,19,12,23,10.20
2019,01,19,12,24,11.00
2019,01,19,12,25,8.90
2019,01,19,12,26,5.10
2019,01,19,12,27,4.70
2019,01,19,12,28,6.00
2019,01,19,12,29,5.20
2019,01,19,12,30,4.80
2019,01,19,12,31,3.50
2019,01,19,12,32,3.90
2019,01,19,12,33,3.80
2019,01,19,12,34,5.00
2019,01,19,12,35,4.40
2019,01,19,12,36,3.00
2019,01,19,12,37,1.60
2019,01,19,12,38,0.50
2019,01,19,12,39,2.20
2019,01,19,12,40,0.00
2019,01,19,12,41,4.40
2019,01,19,12,42,7.80
2019,01,19,12,43,10.80
2019,01,19,12,44,9.80
2019,01,19,12,45,6.50
2019,01,19,12,46,11.80
2019,01,19,12,47,7.70
2019,01,19,12,48,7.90
2019,01,19,12,49,9.70
2019,01,19,12,50,9.40
2019,01,19,12,51,5.10
2019,01,19,12,52,1.20
2019,01,19,12,53,1.30
2019,01,19,12,54,0.70
2019,01,19,12,55,2.70
2019,01,19,12,56,4.50
2019,01,19,12,57,3.40
2019,01,19,12,58,3.40
2019,01,19,12,59,3.30
2019,01,19,13,00,2.40
2019,01,19,13,01,1.40
2019,01,19,13,02,1.20
2019,01,19,13,03,0.80
2019,01,19,13,04,0.00
2019,01,19,13,05,0.00
2019,01,19,13,06,0.00
2019,01,19,13,07,0.10
2019,01,19,13,08,0.00
2019,01,19,13,09,0.00
2019,01,19,13,10,0.00
2019,01,19,13,11,0.00
2019,01,19,13,12,0.70
2019,01,19,13,13,1.20
2019,01,19,13,14,7.50
2019,01,19,13,15,5.30
2019,01,19,13,16,2.00
2019,01,19,13,17,5.80
2019,01,19,13,18,4.30
2019,01,19,13,19,4.20
2019,01,19,13,20,3.90
2019,01,19,13,21,3.90
2019,01,19,13,22,3.90
2019,01,19,13,23,5.10
2019,01,19,13,24,2.60
2019,01,19,13,25,0.00
2019,01,19,13,26,3.40
2019,01,19,13,27,4.90
2019,01,19,13,28,3.30
2019,01,19,13,29,1.70
2019,01,19,13,30,0.10
2019,01,19,13,31,0.00
2019,01,19,13,32,0.40
2019,01,19,13,33,4.60
2019,01,19,13,34,4.00
2019,01,19,13,35,10.30
2019,01,19,13,36,6.10
2019,01,19,13,37,5.00
2019,01,19,13,38,6.00
2019,01,19,13,39,1.80
2019,01,19,13,40,4.60
2019,01,19,13,41,4.20
2019,01,19,13,42,5.70
2019,01,19,13,43,3.90
2019,01,19,13,44,3.90
2019,01,19,13,45,2.80
2019,01,19,13,46,2.50
2019,01,19,13,47,1.70
2019,01,19,13,48,3.60
2019,01,19,13,49,4.80
2019,01,19,13,50,6.10
2019,01,19,13,51,7.80
2019,01,19,13,52,6.30
2019,01,19,13,53,5.70
2019,01,19,13,54,3.70
2019,01,19,13,55,1.70
2019,01,19,13,56,3.20
2019,01,19,13,57,1.30
2019,01,19,13,58,0.20
2019,01,19,13,59,2.70
2019,01,19,14,00,6.50
2019,01,19,14,01,5.60
2019,01,19,14,02,3.60
2019,01,19,14,03,5.50
2019,01,19,14,04,6.30
2019,01,19,14,05,6.30
2019,01,19,14,06,6.00
2019,01,19,14,07,6.80
2019,01,19,14,08,6.40
2019,01,19,14,09,6.20
2019,01,19,14,10,10.40
2019,01,19,14,11,9.40
2019,01,19,14,12,7.00
2019,01,19,14,13,9.70
2019,01,19,14,14,7.20
2019,01,19,14,15,7.00
2019,01,19,14,16,9.10
2019,01,19,14,17,8.00
2019,01,19,14,18,4.60
2019,01,19,14,19,4.90
2019,01,19,14,20,6.00
2019,01,19,14,21,10.40
2019,01,19,14,22,10.30
2019,01,19,14,23,11.80
2019,01,19,14,24,8.40
2019,01,19,14,25,11.20
2019,01,19,14,26,9.60
2019,01,19,14,27,6.90
2019,01,19,14,28,7.70
2019,01,19,14,29,6.60
2019,01,19,14,30,6.00
2019,01,19,14,31,9.20
2019,01,19,14,32,7.90
2019,01,19,14,33,5.90
2019,01,19,14,34,7.00
2019,01,19,14,35,7.20
2019,01,19,14,36,5.90
2019,01,19,14,37,7.00
2019,01,19,14,38,6.90
2019,01,19,14,39,7.90
2019,01,19,14,40,9.60
2019,01,19,14,41,9.30
2019,01,19,14,42,13.70
2019,01,19,14,43,17.00
2019,01,19,14,44,14.50
2019,01,19,14,45,13.40
2019,01,19,14,46,15.00
2019,01,19,14,47,11.00
2019,01,19,14,48,10.10
2019,01,19,14,49,15.80
2019,01,19,14,50,16.80
2019,01,19,14,51,23.20
2019,01,19,14,52,20.90
2019,01,19,14,53,14.70
2019,01,19,14,54,18.30
2019,01,19,14,55,17.90
2019,01,19,14,56,10.70
2019,01,19,14,57,12.00
2019,01,19,14,58,12.70
2019,01,19,14,59,10.70
2019,01,19,15,00,7.00
2019,01,19,15,01,7.30
2019,01,19,15,02,7.60
2019,01,19,15,03,10.00
2019,01,19,15,04,10.80
2019,01,19,15,05,7.60
2019,01,19,15,06,6.90
2019,01,19,15,07,7.00
2019,01,19,15,08,8.20
2019,01,19,15,09,10.30
2019,01,19,15,10,8.60
2019,01,19,15,11,8.40
2019,01,19,15,12,10.50
2019,01,19,15,13,11.70
2019,01,19,15,14,13.10
2019,01,19,15,15,8.70
2019,01,19,15,16,9.80
2019,01,19,15,17,9.20
2019,01,19,15,18,8.80
2019,01,19,15,19,7.20
2019,01,19,15,20,6.30
2019,01,19,15,21,5.60
2019,01,19,15,22,6.10
2019,01,19,15,23,5.10
2019,01,19,15,24,4.60
2019,01,19,15,25,6.10
2019,01,19,15,26,8.70
2019,01,19,15,27,10.80
2019,01,19,15,28,8.20
2019,01,19,15,29,8.20
2019,01,19,15,30,6.30
2019,01,19,15,31,7.40
2019,01,19,15,32,8.60
2019,01,19,15,33,3.20
2019,01,19,15,34,2.60
2019,01,19,15,35,4.60
2019,01,19,15,36,2.80
2019,01,19,15,37,2.70
2019,01,19,15,38,2.90
2019,01,19,15,39,2.70
2019,01,19,15,40,1.50
2019,01,19,15,41,0.00
2019,01,19,15,42,0.00
2019,01,19,15,43,0.00
2019,01,19,15,44,0.00
2019,01,19,15,45,0.00
2019,01,19,15,46,0.00
2019,01,19,15,47,0.00
2019,01,19,15,48,0.00
2019,01,19,15,49,0.00
2019,01,19,15,50,0.00
2019,01,19,15,51,0.00
2019,01,19,15,52,0.00
2019,01,19,15,53,0.00
2019,01,19,15,54,0.00
2019,01,19,15,55,0.00
2019,01,19,15,56,0.00
2019,01,19,15,57,0.00
2019,01,19,15,58,0.00
2019,01,19,15,59,0.00
2019,01,19,16,00,0.00
2019,01,19,16,01,0.00
2019,01,19,16,02,0.00
2019,01,19,16,03,0.00
2019,01,19,16,04,0.00
2019,01,19,16,05,0.00
2019,01,19,16,06,0.00
2019,01,19,16,07,0.00
2019,01,19,16,08,0.00
2019,01,19,16,09,0.00
2019,01,19,16,10,0.00
2019,01,19,16,11,0.00
2019,01,19,16,12,0.00
2019,01,19,16,13,0.00
2019,01,19,16,14,0.00
2019,01,19,16,15,0.00
2019,01,19,16,16,0.00
2019,01,19,16,17,0.00
2019,01,19,16,18,0.00
2019,01,19,16,19,0.00
2019,01,19,16,20,0.00
2019,01,19,16,21,0.00
2019,01,19,16,22,0.00
2019,01,19,16,23,0.00
2019,01,19,16,24,0.00
2019,01,19,16,25,0.00
2019,01,19,16,26,0.00
2019,01,19,16,27,0.00
2019,01,19,16,28,0.00
2019,01,19,16,29,0.00
2019,01,19,16,30,0.00
2019,01,19,16,31,0.00
2019,01,19,16,32,0.00
2019,01,19,16,33,0.00
2019,01,19,16,34,0.00
2019,01,19,16,35,0.00
2019,01,19,16,36,0.00
2019,01,19,16,37,0.00
2019,01,19,16,38,0.00
2019,01,19,16,39,0.00
2019,01,19,16,40,0.00
2019,01,19,16,41,0.00
2019,01,19,16,42,0.00
2019,01,19,16,43,0.00
2019,01,19,16,44,0.00
2019,01,19,16,45,0.00
2019,01,19,16,46,0.00
2019,01,19,16,47,0.00
2019,01,19,16,48,0.00
2019,01,19,16,49,0.00
2019,01,19,16,50,0.00
2019,01,19,16,51,0.00
2019,01,19,16,52,0.00
2019,01,19,16,53,0.00
2019,01,19,16,54,0.00
2019,01,19,16,55,0.00
2019,01,19,16,56,0.00
2019,01,19,16,57,0.00
2019,01,19,16,58,0.00
2019,01,19,16,59,0.00
2019,01,19,17,00,0.00
2019,01,19,17,01,0.00
2019,01,19,17,02,0.00
2019,01,19,17,03,0.00
2019,01,19,17,04,0.10
2019,01,19,17,05,0.00
2019,01,19,17,06,0.00
2019,01,19,17,07,0.00
2019,01,19,17,08,0.00
2019,01,19,17,09,0.00
2019,01,19,17,10,0.00
2019,01,19,17,11,0.00
2019,01,19,17,12,0.00
2019,01,19,17,13,0.00
2019,01,19,17,14,0.00
2019,01,19,17,15,0.00
2019,01,19,17,16,0.00
2019,01,19,17,17,0.00
2019,01,19,17,18,0.00
2019,01,19,17,19,0.00
2019,01,19,17,20,0.00
2019,01,19,17,21,0.00
2019,01,19,17,22,0.00
2019,01,19,17,23,0.00
2019,01,19,17,24,0.00
2019,01,19,17,25,0.00
2019,01,19,17,26,0.00
2019,01,19,17,27,0.00
2019,01,19,17,28,0.00
2019,01,19,17,29,0.00
2019,01,19,17,30,0.00
2019,01,19,17,31,0.00
2019,01,19,17,32,0.00
2019,01,19,17,33,0.00
2019,01,19,17,34,0.00
2019,01,19,17,35,0.00
2019,01,19,17,36,0.00
2019,01,19,17,37,0.00
2019,01,19,17,38,1.80
2019,01,19,17,39,2.30
2019,01,19,17,40,2.60
2019,01,19,17,41,2.20
2019,01,19,17,42,1.70
2019,01,19,17,43,0.10
2019,01,19,17,44,0.00
2019,01,19,17,45,0.00
2019,01,19,17,46,0.00
2019,01,19,17,47,0.00
2019,01,19,17,48,0.00
2019,01,19,17,49,0.00
2019,01,19,17,50,0.00